Location: Ferchesar
(52.6477°N, 12.4298°E)
Time: 13:14:20
(UTC+01:00)

Altair - Pass Details

Date: 16 December 2021
Orbit: 1501 x 1683 km, 47.2° (Epoch: 27 January)

Event Time Altitude Azimuth Distance (km) Brightness Sun altitude
Rises 17:30:30 0° 281° (W) 4,769 11.1 -13.2°
Reaches altitude 10° 17:33:47 10° 276° (W) 3,758 10.6 -13.7°
Maximum altitude 17:42:34 45° 208° (SSW) 1,981 8.4 -14.9°
Drops below altitude 10° 17:51:06 10° 139° (SE) 3,654 9.2 -16.2°
Sets 17:54:15 0° 133° (SE) 4,627 9.7 -16.6°
